Tracking 27126 objects as of 30-Mar-2023
HD Live streaming from Space Station
objects crossing your sky now

STARLINK-4300

Track STARLINK-4300 now!
10-day predictions
STARLINK-4300 is classified as:


NORAD ID: 53173
Int'l Code: 2022-083AT
Perigee: 545.6 km
Apogee: 548.2 km
Inclination: 53.2 °
Period: 95.4 minutes
Semi major axis: 6917 km
RCS: Unknown
Launch date: July 17, 2022
Source: United States (US)
Launch site: AIR FORCE EASTERN TEST RANGE (AFETR)
Your satellite tracking list
Your tracking list is empty




NASA's NSSDC Master Catalog

Two Line Element Set (TLE):
1 53173U 22083AT  23089.25744417  .00007928  00000-0  51562-3 0  9998
2 53173  53.2156 286.9140 0001852  80.4227 279.6975 15.08842020 39986
Source of the keplerian elements: AFSPC